Location: Wanzleben
(52.0609°N, 11.4408°E)
Time: 11:36:23
(UTC+00:00)

Cosmos 2263 Rocket - Pass Details

Date: 22 January 2021
Orbit: 825 x 847 km, 71.0° (Epoch: 24 February)

Event Time Altitude Azimuth Distance (km) Brightness Sun altitude
Rises 20:14:28 0° 300° (WNW) 3,407 6.2 -40.7°
Reaches altitude 10° 20:19:00 10° 333° (NNW) 2,468 5.1 -41.3°
Enters shadow 20:19:58 11° 343° (NNW) 2,389 4.9 -41.4°
